{"data":{"norad_id":69105,"intl_designator":"2026-108B","name":"QIANFAN-146","alt_names":[],"object_type":"PAYLOAD","status":"ACTIVE","operator":null,"country":"PRC","launch_date":"2026-05-17","launch_site_code":"WSC","launch_vehicle":null,"mission":null,"orbit_class":"UNKNOWN","rcs_meters":null,"size_class":null,"mass_kg":null,"dimensions":null,"purposes":[],"wikipedia_slug":null,"has_3d_model":false,"image_url":null,"decayed_at":null,"tle_current":{"epoch":"2026-09-20T02:48:14.257152Z","epoch_age_seconds":56304,"freshness":"FRESH","line1":"1 69105U 26108B   26263.11683168  .00000127  00000+0  17824-3 0  9995","line2":"2 69105  89.0196  12.4093 0001958  99.9351 260.2021 13.51040124 17354","mean_motion":13.51040124,"eccentricity":0.0001958,"inclination_deg":89.0196,"raan_deg":12.4093,"arg_perigee_deg":99.9351,"mean_anomaly_deg":260.2021,"bstar":0.00017824,"rev_number":1735,"period_min":106.5845472995,"perigee_km":1066.976107808,"apogee_km":1069.892185069,"semimajor_km":7446.5711464385,"source":"CELESTRAK","updated_at":"2026-09-20T09:00:24.677615Z"}}}